• MPC Preparation (Info)

  • MPEC 2019-F155: 2019 FL1

    The following Minor Planet Electronic Circular may be linked-to from your own Web pages, but must not otherwise be redistributed electronically.

    A form allowing access to any MPEC is at the bottom of this page.


    Read MPEC 2019-F154 Read MPEC 2019-F156


    M.P.E.C. 2019-F155                               Issued 2019 Mar. 31, 23:34 UT
    
         The Minor Planet Electronic Circulars contain information on unusual
             minor planets and routine data on comets.  They are published
        on behalf of Division F of the International Astronomical Union by the
              Minor Planet Center, Smithsonian Astrophysical Observatory,
                              Cambridge, MA 02138, U.S.A.
    
                 Prepared using the Tamkin Foundation Computer Network
    
                                  MPC@CFA.HARVARD.EDU
                URL https://www.minorplanetcenter.net/    ISSN 1523-6714
    
                                       2019 FL1
    
    Observations:
         K19F01L* C2019 03 29.20419 10 09 33.03 -05 03 58.2          19.3 GVEF155703
         K19F01L  C2019 03 29.21586 10 09 03.68 -05 00 02.1          19.5 GVEF155703
         K19F01L  C2019 03 29.22169 10 08 48.99 -04 58 05.3          18.6 GVEF155703
         K19F01L  C2019 03 29.25480 10 07 23.80 -04 46 41.3          19.0 GVEF155I52
         K19F01L  C2019 03 29.25522 10 07 22.72 -04 46 32.5          19.4 GVEF155I52
         K19F01L  C2019 03 29.25566 10 07 21.58 -04 46 23.1          19.1 GVEF155I52
         K19F01L  C2019 03 29.25608 10 07 20.50 -04 46 14.7          18.9 GVEF155I52
         K19F01L  C2019 03 29.35951 10 02 43.34 -04 08 21.3          18.9 GVEF155I52
         K19F01L  C2019 03 29.35993 10 02 42.17 -04 08 11.5          19.3 GVEF155I52
         K19F01L  C2019 03 29.36078 10 02 39.80 -04 07 51.8          19.1 GVEF155I52
         K19F01L KC2019 03 29.79976 09 40 06.69 -00 46 34.3          18.4 RqEF155A17
         K19F01L KC2019 03 29.80358 09 39 51.41 -00 44 25.6          18.3 RqEF155A17
         K19F01L KC2019 03 29.80833 09 39 32.23 -00 41 43.6          17.6 RqEF155A17
         K19F01L KC2019 03 29.81671609 38 56.13 -00 36 23.8          18.8 GVEF155L01
         K19F01L KC2019 03 29.81721509 38 54.10 -00 36 06.7          18.7 GVEF155L01
         K19F01L pC2019 03 29.82028809 38 41.47 -00 34 20.3          19.1 GVEF155L01
         K19F01L KC2019 03 29.82157509 38 36.19 -00 33 36.4          19.0 GVEF155L01
         K19F01L KC2019 03 29.82607 09 38 19.27 -00 31 37.9          19.0 GVEF155K87
         K19F01L KC2019 03 29.82664 09 38 16.93 -00 31 18.3          18.9 GVEF155K87
         K19F01L KC2019 03 29.82715 09 38 14.84 -00 31 00.5          18.7 GVEF155K87
         K19F01L KC2019 03 29.82870 09 38 08.43 -00 30 06.8          18.7 GVEF155K87
         K19F01L KC2019 03 29.83274009 37 57.34 -00 27 59.1          19.0 GVEF155J95
         K19F01L KC2019 03 29.83738609 37 38.17 -00 25 17.6          19.1 GVEF155J95
         K19F01L KC2019 03 29.84248909 37 17.01 -00 22 18.7          19.0 GVEF155J95
         K19F01L  C2019 03 29.84547 09 36 57.95 -00 20 30.2          19.1 VVEF155033
         K19F01L  C2019 03 29.84578 09 36 56.66 -00 20 19.4          19.0 VVEF155033
         K19F01L  C2019 03 29.84609 09 36 55.40 -00 20 08.7          19.1 VVEF155033
         K19F01L  C2019 03 29.84639 09 36 54.11 -00 19 57.8          19.1 VVEF155033
         K19F01L  C2019 03 29.84670 09 36 52.82 -00 19 47.1          19.1 VVEF155033
         K19F01L  C2019 03 29.84732 09 36 50.25 -00 19 25.4          19.1 VVEF155033
         K19F01L  C2019 03 29.84762 09 36 48.98 -00 19 14.6          19.0 VVEF155033
         K19F01L KC2019 03 29.87408809 35 02.98 -00 02 34.5          18.7 VqEF155I93
         K19F01L KC2019 03 29.87985409 34 38.03 +00 00 54.5          18.8 VqEF155I93
         K19F01L KC2019 03 29.88665109 34 08.43 +00 05 02.9          19.0 VqEF155I93
         K19F01L KC2019 03 29.89197009 33 39.79 +00 08 07.0          19.2 GVEF155587
         K19F01L KC2019 03 29.89264409 33 36.76 +00 08 31.8          19.2 GVEF155587
         K19F01L KC2019 03 29.96034 09 28 31.48 +00 51 27.5                VEF155204
         K19F01L KC2019 03 29.96482 09 28 10.67 +00 54 23.9                VEF155204
         K19F01L KC2019 03 29.96931 09 27 49.76 +00 57 21.5          18.8 GVEF155204
         K19F01L  C2019 03 30.11065 09 17 10.99 +02 39 52.6          18.3 GVEF155I52
         K19F01L  C2019 03 30.11107 09 17 08.71 +02 40 12.1          18.5 GVEF155I52
         K19F01L  C2019 03 30.11196 09 17 03.88 +02 40 53.7          18.1 GVEF155I52
         K19F01L KC2019 03 30.12004 09 16 14.87 +02 47 25.4                oEF155711
         K19F01L KC2019 03 30.12156 09 16 06.48 +02 48 35.0                oEF155711
         K19F01L KC2019 03 30.12289 09 15 59.16 +02 49 36.1                oEF155711
         K19F01L KC2019 03 30.12648 09 15 39.23 +02 52 22.4                oEF155711
         K19F01L KC2019 03 30.12734 09 15 34.45 +02 53 02.7                oEF155711
         K19F01L KC2019 03 30.12817 09 15 29.87 +02 53 41.1                oEF155711
         K19F01L  C2019 03 30.80569 07 49 24.96 +14 38 07.6          18.9 GVEF155246
         K19F01L  C2019 03 30.80606 07 49 20.92 +14 38 37.3                VEF155246
         K19F01L KC2019 03 30.81257 07 48 13.95 +14 46 50.0          18.8 GVEF155K87
         K19F01L KC2019 03 30.81287 07 48 10.61 +14 47 13.8          18.8 GVEF155K87
         K19F01L KC2019 03 30.81318 07 48 07.30 +14 47 37.3          18.8 GVEF155K87
         K19F01L KC2019 03 30.81869 07 47 07.07 +14 54 49.0          18.6 GVEF155K87
         K19F01L KC2019 03 30.81888 07 47 04.96 +14 55 04.1          18.5 GVEF155K87
         K19F01L KC2019 03 30.81911 07 47 02.46 +14 55 22.3          18.7 GVEF155K87
    
    Observer details:
    033 Karl Schwarzschild Observatory, Tautenburg.  Observers U. Laux,
        B. Stecklum.  Measurer B. Stecklum.  1.34-m f/3 Schmidt + CCD.
    204 Schiaparelli Observatory.  Observer L. Buzzi.  0.84-m f/3.5 reflector +
        CCD.
    246 Klet Observatory-KLENOT.  Observers M. Tichy, J. Ticha.  1.06-m f/5.2
        reflector + 2048x2048 CCD.
    587 Sormano.  Observers A. Fumagalli, P. Sicoli, A. Testa.  Measurer
        P. Sicoli.  0.5-m f/6.8 reflector + CCD.
    703 Catalina Sky Survey.  Observer T. A. Pruyne.  Measurers B. M. Africano,
        E. J. Christensen, G. A. Farneth, D. C. Fuls, A. R. Gibbs, A. D. Grauer,
        H. Groeller, R. A. Kowalski, S. M. Larson, G. J. Leonard, T. A. Pruyne,
        R. L. Seaman, F. C. Shelly.  0.68-m Schmidt + 10K CCD.
    711 McDonald Observatory, Fort Davis.  Observer J. G. Ries.  2.1-m reflector
        + CCD + focal reducer.
    A17 Guidestar Observatory, Weinheim.  Observers M. Emmerich, S. Melchert.
        0.36-m f/6 Schmidt-Cassegrain + CCD.
    I52 Steward Observatory, Mt. Lemmon Station.  Observer H. Groeller.
        Measurers B. M. Africano, E. J. Christensen, G. A. Farneth, D. C. Fuls,
        A. R. Gibbs, A. D. Grauer, H. Groeller, R. A. Kowalski, S. M. Larson,
        G. J. Leonard, T. A. Pruyne, R. L. Seaman, F. C. Shelly.  1.0-m reflector
        + CCD.
    I93 St Pardon de Conques.  Observer F. Losse.  0.40-m f/3.7 reflector + CCD.
    J95 Great Shefford.  Observer P. Birtwhistle.  0.41-m f/6.3
        Schmidt-Cassegrain + CCD.
    K87 Dettelbach Vineyard Observatory.  Observer B. Haeusler.  0.30-m
        Schmidt-Cassegrain + CCD.
    L01 Visnjan Observatory, Tican.  Observers K. Korlevic, I. Lyon.  Measurer
        K. Korlevic.  1.0-m f/2.9 reflector + CCD.
    
    Orbital elements:
    2019 FL1                                                 Earth MOID = 0.0000 AU
    Epoch 2019 Apr. 27.0 TT = JDT 2458600.5                 MPC
    M 343.56851              (2000.0)            P               Q
    n   0.63475857     Peri.   75.38988     -0.09032771     +0.99571519
    a   1.3409019      Node   189.49408     -0.95370590     -0.09221001
    e   0.4200604      Incl.    6.89557     -0.28685530     -0.00697022
    P   1.55           H   26.9           G   0.15           U   7
    Residuals in seconds of arc
    190329 703 (1.8-  0.1+)   190329 K87  0.4+  0.4+    190329 204  0.1-  0.7+
    190329 703  1.0-  1.1+    190329 K87  0.1-  0.4+    190330 I52  0.1+  0.9-
    190329 703  0.5+  0.4-    190329 J95  0.3-  0.2+    190330 I52  0.1+  0.5-
    190329 I52  0.1-  0.2-    190329 J95  0.2-  0.2-    190330 I52  0.1+  0.5+
    190329 I52  0.1+  0.2-    190329 J95  0.2-  0.1-    190330 711  1.1+  0.6-
    190329 I52  0.2+  0.0     190329 033  0.0   0.1+    190330 711  0.8+  0.9-
    190329 I52  0.4+  0.4-    190329 033  0.1+  0.1-    190330 711  1.0+  1.1-
    190329 I52  1.0+  0.3-    190329 033  0.7+  0.3-    190330 711  0.1-  0.5-
    190329 I52  0.7+  0.1-    190329 033  0.1+  0.0     190330 711  0.3-  0.0
    190329 I52  0.2+  0.0     190329 033  0.3+  0.2-    190330 711  0.1+  0.1-
    190329 A17  0.4-  0.4+    190329 033  0.7+  0.4-    190330 246  0.1-  0.1+
    190329 A17  0.0   0.0     190329 033  0.5+  0.1-    190330 246  0.5-  1.0+
    190329 A17  0.9-  0.9+    190329 I93  1.1-  0.3+    190330 K87  0.3+  1.2-
    190329 L01  0.4-  0.1+    190329 I93  0.7-  0.1-    190330 K87  0.7-  0.8-
    190329 L01  0.2-  0.0     190329 I93  0.4-  0.1-    190330 K87  0.3+  1.4-
    190329 L01  0.7-  0.8+    190329 587  0.5+  0.5+    190330 K87  0.2+  0.7+
    190329 L01  0.6-  0.4+    190329 587  0.6-  0.5+    190330 K87  0.2-  1.0+
    190329 K87  0.2+  0.3+    190329 204  0.2-  0.3+    190330 K87  0.1+  1.2+
    190329 K87  0.3+  0.2+    190329 204  0.3-  0.5+
    
    Ephemeris:
    2019 FL1                 a,e,i = 1.34, 0.42, 7                   q = 0.7776
    Date    TT    R. A. (2000) Decl.     Delta      r     Elong.  Phase     V
    2019 03 01    11 37 49.4 -14 51 34   0.2328  1.2040   153.8    21.3    25.2
    ...
    2019 03 16    11 31 00.2 -15 23 51   0.1121  1.1018   162.4    15.9    23.2
    ...
    2019 03 24    11 14 58.1 -13 50 13   0.05296 1.0471   161.3    17.8    21.5
    ...
    2019 03 30    09 25 57.2 +01 26 16   0.01160 1.0065   133.2    46.3    19.0
    2019 03 31    07 12 46.7 +19 04 38   0.0075060.9998    97.4    82.1    19.1
    2019 04 01    03 33 16.4 +30 38 30   0.0090460.9931    48.7   130.9    22.5
    ...
    2019 04 07    00 16 08.0 +20 46 44   0.04929 0.9540    18.0   161.1    31.6
    ...
    2019 04 15    23 59 54.0 +18 37 39   0.1084  0.9050    23.8   153.4    31.0
    ...
    2019 04 30    00 03 19.9 +17 11 08   0.2296  0.8284    34.6   136.4    29.7
    
    A. U. Tomatic                (C) Copyright 2019 MPC           M.P.E.C. 2019-F155
    

    Read MPEC 2019-F154 Read MPEC 2019-F156


    MPEC number:

    Enter an MPEC number in one of the following forms:

    • 1997-B01 (the full form)
    • J97B01 (the packed version of the full form)
    • B01 (the abbreviated form)